Weather History for Holland, MI

Change the Weather History Date:

Friday, January 10, 2014

  Actual Average Record
Temperature  
Mean Temperature 33 °F 26 °F  
Max Temperature 41 °F 32 °F 53 °F (1950)
Min Temperature 24 °F 21 °F -1 °F (1968)
Degree Days  
Heating Degree Days 32 39  
Month to date heating degree days 498 381  
Since 1 July heating degree days 2914 2649  
Cooling Degree Days 0 0  
Month to date cooling degree days 0 0  
Year to date cooling degree days 0 0  
Moisture  
Dew Point 32 °F    
Average Humidity 92    
Maximum Humidity 100    
Minimum Humidity 84    
Precipitation  
Precipitation 0.81 in 0.07 in 1.28 in (1975)
Month to date precipitation 1.21 0.70  
Year to date precipitation 1.21 0.70  
Sea Level Pressure  
Sea Level Pressure 29.90 in    
Wind  
Wind Speed 11 mph (SSE)    
Max Wind Speed 21 mph    
Max Gust Speed 25 mph    
Visibility 4 miles    
Events Rain    
T = Trace of Precipitation, MM = Missing Value Source: NWS Daily Summary

Daily Weather History Graph

Daily Weather History Graph

Search for Another Location

Airport:

Trip Planner

Search our weather history database for the weather conditions in past years. The results will help you decide how hot, cold, wet, or windy it might be!

Date:

Astronomy

Jan. 10, 2014 Rise Set
Actual Time 8:13 AM EST 5:30 PM EST
Civil Twilight 7:42 AM EST 6:01 PM EST
Nautical Twilight 7:07 AM EST 6:37 PM EST
Astronomical Twilight 6:33 AM EST 7:11 PM EST
Moon 1:35 PM EST (1/10) 3:18 AM EST (1/10)
Length of Visible Light 10h 19m
Length of Day
9h 16m
Waxing Gibbous, 75% of the Moon is Illuminated
Jan 10
Waxing Gibbous
Jan 15
Full
Jan 24
Last Quarter
Jan 30
New
Feb 6
First Quarter

Hourly Weather History & Observations

Time (EST) Temp. Windchill Dew Point Humidity Pressure Visibility Wind Dir Wind Speed Gust Speed Precip Events Conditions
12:53 AM 24.1 °F 14.4 °F 21.0 °F 88% 30.22 in 5.0 mi SSE 9.2 mph - N/A   Overcast
1:50 AM 24.8 °F 16.1 °F 21.2 °F 86% 30.16 in 5.0 mi SSE 8.1 mph - N/A   Overcast
1:53 AM 25.0 °F 15.5 °F 21.9 °F 88% 30.20 in 5.0 mi SSE 9.2 mph - N/A   Overcast
2:53 AM 26.1 °F 16.2 °F 23.0 °F 88% 30.19 in 4.0 mi South 10.4 mph - N/A   Overcast
3:49 AM 26.6 °F 18.2 °F 24.8 °F 93% 30.14 in 5.0 mi South 8.1 mph - N/A   Overcast
3:53 AM 27.0 °F 18.0 °F 24.1 °F 89% 30.17 in 5.0 mi South 9.2 mph - N/A   Overcast
4:53 AM 27.0 °F 18.7 °F 25.0 °F 92% 30.16 in 5.0 mi South 8.1 mph - N/A   Overcast
5:53 AM 28.0 °F 20.8 °F 26.1 °F 92% 30.14 in 4.0 mi SSE 6.9 mph - N/A   Overcast
6:38 AM 28.0 °F 19.3 °F 26.1 °F 92% 30.11 in 3.0 mi SSE 9.2 mph - N/A   Overcast
6:53 AM 28.9 °F 21.1 °F 27.0 °F 92% 30.14 in 3.0 mi South 8.1 mph - N/A   Overcast
7:10 AM 28.9 °F 21.9 °F 27.0 °F 92% 30.10 in 2.5 mi SSE 6.9 mph - N/A   Overcast
7:51 AM 28.4 °F 20.4 °F 26.6 °F 93% 30.11 in 1.8 mi South 8.1 mph - N/A   Overcast
7:53 AM 28.9 °F 21.1 °F 28.0 °F 96% 30.14 in 1.8 mi South 8.1 mph - N/A   Overcast
8:32 AM 28.9 °F 21.9 °F 28.0 °F 96% 30.11 in 1.0 mi South 6.9 mph - N/A   Overcast
8:53 AM 30.0 °F 22.4 °F 28.0 °F 92% 30.13 in 1.0 mi SSE 8.1 mph - N/A   Overcast
9:43 AM 30.0 °F 21.7 °F 28.9 °F 96% 30.10 in 1.5 mi South 9.2 mph - N/A   Overcast
9:53 AM 30.9 °F 22.8 °F 28.9 °F 92% 30.13 in 1.8 mi South 9.2 mph - N/A   Overcast
10:53 AM 32.0 °F 24.8 °F 30.0 °F 92% 30.10 in 2.0 mi SSE 8.1 mph - N/A   Overcast
11:37 AM 32.0 °F 24.2 °F 30.0 °F 92% 30.03 in 3.0 mi SE 9.2 mph - N/A   Overcast
11:53 AM 33.1 °F 24.4 °F 30.9 °F 92% 30.06 in 4.0 mi SSE 11.5 mph - N/A   Overcast
12:04 PM 33.1 °F 23.9 °F 30.9 °F 92% 30.03 in 4.0 mi South 12.7 mph - N/A   Overcast
12:53 PM 34.0 °F 25.0 °F 30.9 °F 89% 30.00 in 5.0 mi SSE 12.7 mph - N/A   Overcast
1:53 PM 35.1 °F 25.9 °F 32.0 °F 89% 29.95 in 5.0 mi SE 13.8 mph - N/A   Overcast
2:53 PM 35.1 °F 26.9 °F 33.1 °F 92% 29.91 in 5.0 mi SE 11.5 mph - N/A   Overcast
3:32 PM 35.1 °F 27.4 °F 33.1 °F 92% 29.86 in 2.5 mi SE 10.4 mph - N/A   Overcast
3:45 PM 35.1 °F 27.9 °F 33.1 °F 92% 29.86 in 2.5 mi SE 9.2 mph - N/A   Overcast
3:53 PM 35.1 °F 27.9 °F 33.1 °F 92% 29.88 in 2.0 mi SE 9.2 mph - N/A   Overcast
4:04 PM 35.1 °F 26.9 °F 33.1 °F 92% 29.84 in 1.8 mi SE 11.5 mph - N/A   Overcast
4:53 PM 36.0 °F 28.0 °F 34.0 °F 93% 29.84 in 2.0 mi SE 11.5 mph - 0.00 in Rain Light Rain
5:08 PM 36.0 °F 29.0 °F 35.1 °F 97% 29.82 in 1.2 mi SE 9.2 mph - 0.05 in Rain Rain
5:15 PM 36.0 °F 28.5 °F 35.1 °F 97% 29.81 in 2.0 mi SE 10.4 mph - 0.06 in Rain Rain
5:24 PM 36.0 °F 28.0 °F 35.1 °F 97% 29.80 in 4.0 mi SE 11.5 mph - 0.08 in Rain Light Rain
5:34 PM 36.0 °F 28.5 °F 35.1 °F 97% 29.79 in 4.0 mi SE 10.4 mph - 0.11 in Rain Rain
5:53 PM 36.0 °F 28.5 °F 35.1 °F 97% 29.81 in 4.0 mi SE 10.4 mph - 0.17 in Rain Rain
6:53 PM 37.9 °F 28.9 °F 36.0 °F 93% 29.77 in 4.0 mi SSE 16.1 mph - 0.12 in Rain Rain
7:05 PM 37.9 °F 30.0 °F 36.0 °F 93% 29.74 in 4.0 mi SSE 12.7 mph - 0.03 in Rain Rain
7:13 PM 37.9 °F 29.2 °F 37.0 °F 97% 29.73 in 4.0 mi SSE 15.0 mph - 0.05 in Rain Rain
7:35 PM 39.0 °F 30.3 °F 37.0 °F 93% 29.72 in 4.0 mi SSE 16.1 mph - 0.11 in Rain Rain
7:53 PM 39.0 °F 29.6 °F 37.9 °F 96% 29.73 in 4.0 mi SSE 18.4 mph - 0.16 in Rain Light Rain
8:07 PM 39.0 °F 29.6 °F 37.9 °F 96% 29.69 in 5.0 mi SSE 18.4 mph - 0.01 in Rain Light Rain
8:36 PM 39.9 °F 30.8 °F 39.0 °F 97% 29.67 in 5.0 mi SSE 18.4 mph 25.3 mph 0.05 in Rain Light Rain
8:48 PM 39.2 °F 31.2 °F 39.2 °F 100% 29.65 in 5.0 mi SSE 13.8 mph 24.2 mph 0.07 in Rain Light Rain
8:53 PM 39.9 °F 31.8 °F 39.0 °F 97% 29.67 in 6.0 mi SSE 15.0 mph - 0.08 in Rain Light Rain
9:00 PM 39.9 °F 31.4 °F 39.0 °F 97% 29.64 in 6.0 mi SSE 16.1 mph - 0.01 in Rain Light Rain
9:16 PM 39.9 °F 31.4 °F 39.0 °F 97% 29.64 in 4.0 mi SSE 16.1 mph - 0.04 in Rain Rain
9:25 PM 39.9 °F 31.8 °F 39.9 °F 100% 29.63 in 4.0 mi SSE 15.0 mph - 0.07 in Rain Rain
9:53 PM 39.9 °F 31.1 °F 39.9 °F 100% 29.62 in 6.0 mi SSE 17.3 mph - 0.11 in Rain Light Rain
10:35 PM 41.0 °F 33.1 °F 39.9 °F 96% 29.57 in 8.0 mi SSE 15.0 mph - 0.05 in Rain Light Rain
10:45 PM 41.0 °F 33.9 °F 39.9 °F 96% 29.56 in 6.0 mi SSE 12.7 mph - 0.07 in Rain Rain
10:53 PM 41.0 °F 34.7 °F 41.0 °F 100% 29.58 in 6.0 mi South 10.4 mph - 0.08 in Rain Light Rain
11:53 PM 41.0 °F 33.1 °F 41.0 °F 100% 29.58 in 6.0 mi South 15.0 mph - 0.09 in Rain Light Rain